Regional Weather Roundup
Issued by NWS Green Bay, WI

Home | Current Version | Previous Version | Text Only | Print | Product List | Glossary On
Versions: 1 2 3 4 5 6 7 8 9 10 11 12 13 14 15 16 17 18 19 20 21 22 23 24 25 26 27 28 29 30 31 32 33 34 35 36 37 38 39 40 41 42 43 44 45 46 47 48 49 50
000
ASUS43 KGRB 260610
RWRGRB

NORTH-CENTRAL AND NORTHEAST WISCONSIN REGIONAL WEATHER ROUNDUP
NATIONAL WEATHER SERVICE GREEN BAY WI
1200 AM CST WED NOV 26 2014

WIZ005-009-010>012-018-019-260700-
NORTH CENTRAL WISCONSIN

CITY           SKY/WX    TMP DP  RH WIND       PRES   REMARKS
IRONWOOD       MOCLDY     1   1 100 CALM      30.05R
MANITOWISH WTR CLOUDY     1  -2  88 CALM      30.07R
ARBOR VITAE    CLOUDY     9   6  87 CALM      30.06S
EAGLE RIVER    PTCLDY     0  -4  82 CALM      30.08R
LAND O LAKES   CLEAR     -6 -10  83 CALM      30.08R
RHINELANDER    CLOUDY     5   2  87 CALM      30.09R
PHILLIPS       CLOUDY    15  12  90 CALM      30.06S
ANTIGO         CLOUDY    -4  -8  85 CALM      30.10S
TOMAHAWK       CLOUDY    10   8  91 CALM      30.09R
MERRILL        CLOUDY    10   8  90 CALM      30.10S
$$

WIZ013-073-260700-
NORTHEAST WISCONSIN

CITY           SKY/WX    TMP DP  RH WIND       PRES   REMARKS
IRON MOUNTAIN  PTCLDY     1  -4  79 CALM      30.12R
MARINETTE      CLOUDY    18  12  79 W5        30.17R
OCONTO         PTCLDY    12  11  96 CALM      30.18R
$$

WIZ017-030-035>037-045-260700-
CENTRAL WISCONSIN

CITY           SKY/WX    TMP DP  RH WIND       PRES   REMARKS
MEDFORD        CLOUDY    19  16  85 SE6       30.06S
WAUSAU         CLOUDY    12  10  92 E6        30.10R WCI   3
MOSINEE        CLOUDY    12  12 100 E3        30.11S
MARSHFIELD     CLOUDY    21  15  78 SE3       30.09R
WISC RAPIDS    CLOUDY    18  13  80 CALM      30.13S
STEVENS POINT  CLOUDY     9   7  90 CALM      30.13S
WAUPACA        PTCLDY     9   5  85 CALM      30.16S
SHAWANO        CLEAR     10   7  87 CALM      30.17R
CLINTONVILLE   CLEAR      7   3  85 CALM      30.16R
$$

WIZ038-039-048-051-260700-
FOX VALLEY

CITY           SKY/WX    TMP DP  RH WIND       PRES   REMARKS
NWS GREEN BAY  PTCLDY    12  11  95 CALM      30.18R FOG
APPLETON       CLEAR     16  16 100 SW3       30.16R
OSHKOSH        PTCLDY    13  10  88 CALM      30.16R
FOND DU LAC    PTCLDY    14  11  87 S3        30.16R
$$

WIZ022-050-052-260700-
EAST CENTRAL WISCONSIN

CITY           SKY/WX    TMP DP  RH WIND       PRES   REMARKS
STURGEON BAY   CLOUDY    21  12  68 CALM      30.17R
MANITOWOC      CLOUDY    20  17  88 SW6       30.19R
SHEBOYGAN      CLOUDY    21  15  78 S6        30.18R
$$

LMZ563-521-522-541>543-260700-
LAKESHORE

STATION/POSITION TIME  TEMP    WIND        PRES    VSBY  WAVE
                       AIR SEA DIR/SP/G                  HT/PER
                 (UTC) (F)     (DEG/KT/KT) (MB)    (MI)  (FT/S)
SHEBOYGAN LKSHOR 0600   21 36  230/  6/  8 1023.4R
KEWAUNEE LKSHORE 0600   21      CALM  /  3 1021.1R
NORTHPORT PIER   0600   24     210/  3/  8 1021.7R
N MID LAKE BUOY  0600   29 42  250/  6/ 10 1021.9R         1
SISTER BAY LKSHO 0500          230/  2/  5   N/A
CHAMBERS ISLAND  0600   22     240/  7/ 10 1021.7S
MENOMINEE LKSHOR 0600   20     230/  6/  9 1022.3R
$$


USA.gov is the U.S. government's official web portal to all federal, state and local government web resources and services.